Back to catalog

WENWU 01

AliveScienceSSO
NORAD 69539·PAYLOAD·🇨🇳 China
This satellite name has not been confirmed by official sources yet.

Launched Jun 15, 2026 from Jiuquan Satellite Launch Center

Loading…

Next Passes (next 24 hours)

TLE

FreshSource: Space-Track

Epoch: Sep 14, 2026, 13:39 UTC

1 69539U 26134B   26257.56887376  .00003271  00000-0  21213-3 0  9995
2 69539  97.6904 327.9361 0015183 331.0638  28.9747 15.08723981 13782

Track WENWU 01 in real time with AllMySat

Download on the App Store